Weather observations for the past three days for
Rolla / Vichy, Rolla National Airport
Imperial (Metric)
Date Time (cdt) Wind (mph) Vis. (mi.) Weather Sky Cond. Temperature (ºF) Relative Humidity Wind Chill (°F) Heat Index (°F) Pressure Precipitation (in)
Air Dwpt 6 hour altimeter (in) sea level (mb) 1 hr 3 hr 6 hr
Max. Min.
04 11:53 Calm 10.00 Fair CLR 91 71.1 52% 98 30.04 1015.8
04 10:53 Vrbl 5 10.00 Fair CLR 90 72 56% 97 30.05 1016.0
04 09:53 SW 7 10.00 Fair CLR 86 72 63% 92 30.04 1015.7
04 08:53 SW 9 10.00 Fair CLR 82 71.1 69% 86 30.04 1015.7
04 07:53 S 8 10.00 Fair CLR 78.1 70 76% 80 30.03 1015.6
04 06:53 SW 7 10.00 Fair CLR 73 68 81 73 84% 30.02 1015.1
04 05:53 S 8 10.00 Fair CLR 73.9 68 82% 30 1014.4
04 04:53 S 7 10.00 Fair CLR 75 68 79% 76 30 1014.2
04 03:53 S 9 10.00 Fair CLR 77 68 74% 79 29.98 1013.6
04 02:53 S 9 10.00 Fair CLR 78.1 66.9 69% 80 29.97 1013.3
04 01:53 S 9 10.00 Fair CLR 80.1 68 67% 83 29.98 1013.4
04 00:53 S 7 10.00 Fair CLR 79 68 89.1 79 69% 81 29.98 1013.5
03 23:53 S 7 10.00 Fair CLR 81 69.1 67% 84 29.97 1013.4
03 22:53 S 7 10.00 Fair CLR 82 71.1 69% 86 29.97 1013.5
03 21:53 SE 9 10.00 Fair CLR 82.9 72 70% 88 29.97 1013.3
03 20:53 SE 9 10.00 Fair CLR 84 72 67% 90 29.95 1012.8
03 19:53 SE 9 10.00 Mostly Cloudy BKN080 86 71.1 61% 92 29.94 1012.4
03 18:53 E 7 10.00 Overcast BKN090 OVC100 90 71.1 98.1 89.1 54% 96 29.93 1012.0
03 17:53 E 8 10.00 Mostly Cloudy BKN090 93.9 70 46% 100 29.93 1011.9
03 16:53 SE 9 10.00 Mostly Cloudy BKN085 97 69.1 40% 103 29.92 1011.7
03 15:53 SE 7 10.00 Fair CLR 97 68 39% 102 29.94 1012.2
03 13:53 Vrbl 7 10.00 Fair CLR 95 68 41% 100 29.98 1013.5
03 12:53 SW 3 10.00 Fair CLR 93.9 70 93.9 73 46% 100 30 1014.3
03 11:53 SW 8 10.00 Fair CLR 91 70 50% 97 30.02 1015.0
03 10:53 SW 6 10.00 Fair CLR 89.1 71.1 55% 95 30.04 1015.6
03 09:53 SW 9 10.00 Fair CLR 84.9 71.1 63% 90 30.04 1015.7
03 08:53 SW 9 10.00 Fair CLR 82 71.1 69% 86 30.04 1015.8
03 07:53 S 9 10.00 Fair CLR 78.1 70 76% 80 30.04 1015.7
03 06:53 S 8 10.00 Fair CLR 73 68 82 72 84% 30.03 1015.3
03 05:53 SW 8 10.00 Fair CLR 73.9 68 82% 30.02 1015.0
03 04:53 S 9 10.00 Fair CLR 75.9 68 77% 77 30.01 1014.7
03 03:53 S 8 10.00 Fair CLR 77 66.9 71% 79 30.01 1014.7
03 02:53 S 8 10.00 Fair CLR 78.1 68 71% 80 30 1014.4
03 01:53 S 8 10.00 Fair CLR 80.1 68 67% 83 30.01 1014.6
03 00:53 S 10 10.00 Fair CLR 82 68 89.1 80.1 63% 85 30 1014.4
02 23:53 S 9 10.00 Fair CLR 82 68 63% 85 30 1014.2
02 22:53 SE 7 10.00 Fair CLR 80.1 70 71% 83 30 1014.2
02 21:53 SE 8 10.00 Fair CLR 81 72 74% 85 29.99 1014.1
02 20:53 SE 8 10.00 A Few Clouds FEW090 82.9 72 70% 88 29.98 1013.8
02 19:53 E 8 10.00 Mostly Cloudy BKN095 84.9 71.1 63% 90 29.96 1013.1
02 18:53 E 6 10.00 Fair CLR 89.1 71.1 96.1 89.1 55% 95 29.96 1013.1
02 17:53 SE 6 10.00 Fair CLR 93 71.1 49% 100 29.97 1013.2
02 16:53 SE 6 10.00 Mostly Cloudy SCT080 BKN100 93 70 47% 99 29.97 1013.4
02 15:53 E 8 10.00 Mostly Cloudy SCT075 BKN090 91.9 70 49% 98 29.98 1013.8
02 14:53 E 6 10.00 A Few Clouds FEW100 95 68 41% 100 30.01 1014.5
02 13:53 S 6 10.00 A Few Clouds FEW070 93.9 70 46% 100 30.03 1015.3
02 12:53 SW 8 10.00 Fair CLR 91 70 93.9 75 50% 97 30.05 1016.0
02 11:53 SW 7 10.00 Fair CLR 93 71.1 49% 100 30.07 1016.6
02 10:53 W 8 10.00 Fair CLR 89.1 71.1 55% 95 30.08 1017.2
02 09:53 SW 12 10.00 Fair CLR 87.1 72 61% 94 30.08 1017.2
02 08:53 SW 10 10.00 Fair CLR 82.9 70 65% 87 30.08 1017.3
02 07:53 S 8 10.00 Fair CLR 79 69.1 72% 82 30.08 1017.3
02 06:53 S 8 10.00 Fair CLR 75 66.9 82 75 76% 76 30.07 1016.9
02 05:53 S 9 10.00 Fair CLR 75.9 66.9 74% 77 30.06 1016.4
02 04:53 S 9 10.00 Fair CLR 78.1 66.9 69% 80 30.05 1015.9
02 03:53 S 9 10.00 Fair CLR 78.1 66.9 69% 80 30.05 1015.8
02 02:53 S 10 10.00 Fair CLR 80.1 66.9 64% 82 30.04 1015.6
02 01:53 S 12 10.00 Fair CLR 82 66.9 60% 85 30.04 1015.7
02 00:53 S 10 10.00 Fair CLR 81 68 89.1 80.1 65% 84 30.04 1015.6
01 23:53 S 8 10.00 Fair CLR 81 69.1 67% 84 30.03 1015.5
01 22:53 SE 9 10.00 Fair CLR 81 71.1 72% 85 30.03 1015.3
01 21:53 SE 8 10.00 Fair CLR 82 71.1 69% 86 30.02 1015.2
01 20:53 SE 8 10.00 Partly Cloudy SCT085 82.9 71.1 67% 88 30.01 1014.7
01 19:53 E 7 10.00 Fair CLR 82.9 71.1 67% 88 30 1014.5
01 18:53 E 6 10.00 Fair CLR 89.1 71.1 96.1 89.1 55% 95 30 1014.5
01 17:53 E 7 10.00 Fair CLR 93 70 47% 99 30.01 1014.7
01 16:53 E 8 10.00 Fair CLR 95 69.1 43% 101 30.01 1014.6
01 15:53 E 7 10.00 Fair CLR 96.1 66 37% 100 30.02 1015.1
01 14:53 SE 3 10.00 A Few Clouds FEW090 93.9 69.1 44% 99 30.04 1015.7
01 13:53 S 5 10.00 Fair CLR 93.9 68 43% 98 30.06 1016.3
01 12:53 Calm 10.00 Fair CLR 93.9 69.1 93.9 73.9 44% 99 30.07 1016.8
Date Time (cdt) Wind (mph) Vis. (mi.) Weather Sky Cond. Air Dwpt Max. Min. Relative Humidity Wind Chill (°F) Heat Index (°F) altimeter (in) sea level (mb) 1 hr 3 hr 6 hr
6 hour
Temperature (ºF) Pressure Precipitation (in)